Miscellaneous Local Product
Issued by NWS North Platte, NE

Home | Current Version | Previous Version | Text Only | Print | Product List | Glossary On
Versions: 1 2 3 4 5 6 7 8 9 10 11 12 13 14 15 16 17 18 19 20 21 22 23 24 25 26 27 28 29 30 31 32 33 34 35 36 37 38 39 40 41 42 43 44 45 46 47 48 49 50
000
AXUS43 KLBF 290610
MISLBF


WESTERN AND NORTH CENTRAL NEBRASKA HOURLY WEATHER ROUNDUP
NATIONAL WEATHER SERVICE NORTH PLATTE NE
100 AM CDT SAT APR 29 2017

NOTE: "FAIR" INDICATES FEW OR NO CLOUDS BELOW 12,000 FEET WITH NO
SIGNIFICANT WEATHER AND/OR OBSTRUCTIONS TO VISIBILITY.

NOTE: STATIONS NOT REPORTING VARIABLES SUCH AS SKY/WEATHER OR
PRESSURE ARE PROVIDED BY RAWS AND APRS NETWORKS AND ARE NOT UNDER
NATIONAL WEATHER SERVICE QUALITY CONTROL.

...OBSERVATIONS IN AND NEAR THE EASTERN PANHANDLE OF NEBRASKA...

CITY           SKY/WX    TMP DP  RH WIND       PRES   REMARKS
PINE RIDGE     MOCLDY    38  26  62 NE9       30.14F WCI  31
CHADRON        CLEAR     33  29  85 N7        30.13F WCI  27
ALLIANCE       CLOUDY    33  29  85 N6        30.12R WCI  28
SIDNEY         CLOUDY    33  31  92 NE9       30.12R WCI  25
CRESCENT LAKE    N/A     34  30  86 NE7G14      N/A  WCI  28
$$

...OBSERVATIONS IN NORTHERN NEBRASKA AND FAR SOUTHERN SOUTH DAKOTA...

CITY           SKY/WX    TMP DP  RH WIND       PRES   REMARKS
WINNER         MOCLDY    39  25  57 NE7       30.20R WCI  34
VALENTINE      CLOUDY    43  21  41 NE12      30.17F
THEDFORD       CLOUDY    41  32  69 N9        30.13R
AINSWORTH      CLOUDY    40  31  68 NE9       30.15S WCI  34
O`NEILL        CLOUDY    42  30  62 N10       30.15R
ORD            CLOUDY    40  33  76 N8        30.10R WCI  34
BROKEN BOW     CLOUDY    40  33  76 NE9       30.09S WCI  34
VALENTINE NWR    N/A     40  28  61 NE6         N/A
BUTTE            N/A     40  27  60 CALM        N/A
CHAMBERS         N/A     41  30  65 N3          N/A
EWING            N/A     41  35  79 NE3         N/A
$$

...OBSERVATIONS IN SOUTHWEST NEBRASKA AND FAR NORTHEAST COLORADO...

CITY           SKY/WX    TMP DP  RH WIND       PRES   REMARKS
HOLYOKE        CLOUDY    37  36  93 N12       30.12R WCI  30
IMPERIAL       CLOUDY    36  33  89 NE5       30.11R WCI  32
OGALLALA       CLOUDY    38  33  81 N8        30.11S WCI  32
NORTH PLATTE   CLOUDY    39  33  79 NE10      30.09R WCI  32
MCCOOK         CLOUDY    37  34  89 NE16G25   30.09S WCI  28
LEXINGTON      CLOUDY    39  32  76 NE17      30.08S WCI  30
STAPLETON        N/A     37  33  85 CALM        N/A
GOTHENBURG       N/A     38  31  77 NE8         N/A  WCI  32
CALLAWAY         N/A     34  33  95 N5          N/A  WCI  30
$$

...OBSERVATIONS IN CENTRAL LINCOLN COUNTY AREA...

CITY           SKY/WX    TMP DP  RH WIND       PRES   REMARKS
N.P. AIRPORT   CLOUDY    39  33  79 NE10      30.09R WCI  32
N.P. DOWNTOWN    N/A     39  33  78 NE7         N/A  WCI  34
N.P. SOUTHEAST   N/A     38  32  79 NE3         N/A
N.P. HILLCREST   N/A     39  33  79 NE12        N/A  WCI  32
$$

...SOME OBSERVATIONS FROM AROUND THE REGION...

CITY           SKY/WX    TMP DP  RH WIND       PRES   REMARKS
DENVER         LGT SNOW  30  27  88 NE22      30.06F FOG     WCI  17
LIMON          LGT SNOW  29  29 100 N18G25    30.00S FOG     WCI  16
ASPEN          CLOUDY    31  24  75 CALM      29.84R
LARAMIE        CLOUDY    23  19  85 E20       30.05R WCI   8
CASPER         CLOUDY    30  27  88 E7        30.15F WCI  23
CHEYENNE       LGT SNOW  27  25  92 NE12      30.10R FOG     WCI  17
SCOTTSBLUFF    CLOUDY    34  31  88 SW5       30.15R WCI  30
GRAND ISLAND   CLOUDY    39  39 100 N10       30.09S WCI  32
OMAHA          CLOUDY    44  37  76 N12       30.08S
SIOUX FALLS    CLOUDY    37  27  67 N7        30.15R WCI  32
PIERRE         CLOUDY    39  18  42 SE3       30.20R
RAPID CITY     CLOUDY    36  20  52 CALM      30.19S
BISMARCK       CLEAR     33  24  69 CALM      30.21S
KANSAS CITY    FOG       44  43  96 N15       29.88F VSB 1
HILL CITY      CLOUDY    39  37  92 NE15      30.02F WCI  31
WICHITA        CLOUDY    47  44  90 N25G32    29.76F
DODGE CITY     RAIN      39  38  96 NE23G33   29.87F FOG     WCI  28
OKLAHOMA CITY  CLOUDY    67  63  87 E17       29.59F
DALLAS         CLOUDY    79  73  82 SE17      29.60R
AMARILLO       LGT RAIN  44  43  96 N22G30    29.77F
$$




USA.gov is the U.S. government's official web portal to all federal, state and local government web resources and services.